Location: Unspecified
(0.0000°N, 0.0000°E)
Time: 20:17:54
(UTC+00:00)

ARIANE 1 DEB - Pass Details

Date: 21 February 2026
Orbit: 376 x 19604 km, 19.8° (Epoch: 20 January)

Event Time Altitude Azimuth Distance (km) Brightness Sun altitude
Rises 22:31:04 0° 280° (W) 10,835 ? -62.5°
Reaches altitude 10° 22:43:50 10° 272° (W) 6,486 ? -65.4°
Enters shadow 22:50:22 19° 259° (W) 3,938 ? -66.9°
